www.pogodaiklimat.ru

Погода и климат >> Архив погоды >> Таиланд >> Чайнат Агромет


ПОГОДА в Чайнат Агромете

  • Прогноз погоды в Чайнат Агромете
  • Монитор погоды в Чайнат Агромете

АРХИВ ПОГОДЫ в Чайнат Агромете

Время (UTC), дата Ветер
(напр.,м/с)
 
Видим.   Явления Облачность Т
(С)
Тd
(С)
f
(%)
Тe
(С)
Тes
(С)
Комфортность P
(гПа)
Po
(гПа)
Тmin
(С)
Tmax
(С)
R
(мм)
R24
(мм)
S
(см)
09 15.08 Ю 2 14 км 8/3 600 м
[Sc Ac und Cs]
+34.1 +24.1 56 +46 +50 опасность
перегрева
1003.8 1001.9
12 15.08 штиль 0 9000 м дымка 8/3 600 м
[Sc Ac lent Cs]
+31.0 +26.1 75 +46 +46 опасность
перегрева
1004.4 1002.5 +34.6
15 15.08 штиль 0 9000 м дымка 8/3 600 м
[Sc Ac lent Cs]
+29.0 +24.7 78 +41 +41 опасность
перегрева
1006.6 1004.6
18 15.08 штиль 0 8000 м дымка 8/3 600 м
[Sc Ac lent Cs]
+27.0 +24.1 84 +37 +37 очень
душно
1005.8 1003.8
21 15.08 штиль 0 8000 м дымка 8/3 600 м
[Sc Ac lent Cs]
+26.2 +24.2 89 +36 +36 очень
душно
1004.8 1002.9
00 16.08 штиль 0 9000 м дымка 6/3 600 м
[Sc Ac lent Cs]
+25.6 +24.4 93 +36 +37 очень
душно
1005.8 1003.9 +25.3
03 16.08 ЮЗ 2 10 км 9/8 600 м
[Sc Ac trans Cs]
+30.0 +25.0 75 +43 +46 опасность
перегрева
1006.9 1005.0
06 16.08 штиль 0 10 км 9/8 600 м
[Sc Ac trans Cs]
+34.1 +24.6 58 +47 +51 опасность
перегрева
1005.0 1003.1
09 16.08 штиль 0 10 км 9/9 600 м
[Sc Ac trans Cs]
+33.8 +24.1 57 +46 +47 опасность
перегрева
1002.3 1000.5
12 16.08 штиль 0 9000 м дымка 9/3 300 м
[Cb cap Ac und Cs]
+31.0 +26.4 77 +47 +47 опасность
перегрева
1003.9 1002.0 +34.5
15 16.08 штиль 0 7000 м дымка {гроза, дождь} 9/4 600 м
[Cu med, cong Ac As Cs]
+27.5 +25.4 88 +40 +40 очень
душно
1006.6 1004.7 0.8
18 16.08 Ю 2 7000 м дымка {гроза, дождь} 8/4 600 м
[Sc Ac und Cs]
+27.0 +24.8 88 +39 +39 очень
душно
1006.1 1004.2 0.8
21 16.08 штиль 0 7000 м дымка 8/4 600 м
[Sc Ac und Cs]
+26.4 +24.7 90 +37 +37 очень
душно
1005.8 1003.8
00 17.08 Ю 2 9000 м дымка 8/4 600 м
[Sc Ac und Cs]
+26.0 +23.8 88 +36 +36 очень
душно
1004.9 1003.0 +25.0
03 17.08 Ю 5 10 км 10/6 600 м
[Sc Ac und Cs]
+31.8 +24.2 64 +44 +45 опасность
перегрева
1007.7 1005.8
06 17.08 Ю 6 10 км 8/4 600 м
[Sc Ac und Cs]
+33.5 +23.4 56 +44 +48 опасность
перегрева
1006.7 1004.8
09 17.08 З 3 10 км 8/4 600 м
[Sc Ac und Cs]
+33.0 +24.5 61 +46 +48 опасность
перегрева
1004.6 1002.7
12 17.08 ЮЗ 5 9000 м 8/4 600 м
[Sc Ac und Cs]
+29.5 +22.9 68 +39 +39 очень
душно
1006.5 1004.6 +33.9
15 17.08 Ю 2 9000 м дымка 8/4 600 м
[Sc Ac und Cs]
+27.5 +23.9 81 +38 +38 очень
душно
1009.8 1007.9
18 17.08 Ю 3 9000 м дымка 8/4 600 м
[Sc Ac und Cs]
+26.8 +24.2 86 +37 +37 очень
душно
1008.6 1006.7
21 17.08 ЮВ 3 9000 м дымка 8/4 600 м
[Sc Ac und Cs]
+26.0 +23.8 88 +36 +36 очень
душно
1008.5 1006.5
00 18.08 ЮВ 2 9000 м дымка 8/4 600 м
[Sc Ac und Cs]
+26.0 +23.8 88 +36 +36 очень
душно
1010.4 1008.4 +25.8
03 18.08 Ю 3 10 км 8/8 600 м
[Sc Ac trans Cs]
+29.0 +23.2 71 +39 +42 очень
душно
1011.0 1009.1
06 18.08 Ю 4 10 км 9/8 600 м
[Sc Ac trans Cs]
+31.6 +23.7 63 +43 +45 опасность
перегрева
1009.1 1007.2
09 18.08 ЮВ 2 11 км 8/8 600 м
[Sc Ac trans Cs]
+33.5 +23.9 57 +45 +47 опасность
перегрева
1007.1 1005.2
12 18.08 ЮЗ 5 10 км 9/8 600 м
[Sc Ac trans Cs]
+30.5 +22.1 61 +39 +39 очень
душно
1008.2 1006.3 +34.0
15 18.08 штиль 0 9000 м дымка 9/8 600 м
[Sc Ac trans Cs]
+27.0 +23.3 80 +36 +36 очень
душно
1010.2 1008.3
18 18.08 штиль 0 9000 м дымка 8/8 600 м
[Sc Ac trans Cs]
+26.3 +23.7 86 +36 +36 очень
душно
1009.3 1007.3
21 18.08 штиль 0 8000 м дымка 8/8 600 м
[Sc Ac trans Cs]
+25.7 +23.2 86 +34 +34 очень
душно
1008.0 1006.1
00 19.08 штиль 0 9000 м дымка 9/8 600 м
[Sc Ac trans Cs]
+25.9 +23.7 88 +35 +36 очень
душно
1008.8 1006.9 +24.6
03 19.08 штиль 0 12 км 5/3 600 м
[Sc Ac und Cs]
+31.0 +24.0 66 +43 +55 опасность
перегрева
1009.5 1007.6
06 19.08 Ю 3 12 км 8/4 600 м
[Sc diur, vesp Ac lent Cs]
+33.6 +24.2 58 +46 +53 опасность
перегрева
1007.8 1005.9
09 19.08 В 1 9000 м осадки на расстоянии 8/5 600 м
[Cb cap Ac und Cs]
+33.6 +24.2 58 +46 +49 опасность
перегрева
1005.5 1003.6
12 19.08 ЮВ 1 3000 м гроза, ливневой дождь 10/6 600 м
[Cb cap Ac As Cs]
+25.3 +23.7 91 +34 +34 очень
душно
1007.0 1005.1 +35.0 22
15 19.08 ЮВ 2 6000 м слаб. дождь 10/6 600 м
[Sc Ac As Cs]
+25.4 +24.5 95 +36 +36 очень
душно
1009.1 1007.2 4
18 19.08 ЮВ 2 4000 м слаб. дождь 10/5 600 м
[Sc Ac As Cs]
+25.2 +24.8 98 +36 +36 очень
душно
1007.4 1005.5 3
21 19.08 ЮВ 3 5000 м в посл. час дождь 10/5 600 м
[Sc Ac und Cs]
+25.0 +24.3 96 +35 +35 очень
душно
1007.6 1005.6 0.2
00 20.08 Ю 4 5000 м дымка {дождь} 10/6 600 м
[Sc Ac As Cs]
+25.3 +24.6 96 +36 +36 очень
душно
1006.4 1004.5 +24.9 30
03 20.08 ЮЗ 5 12 км 10/4 600 м
[Sc Ac As Cs]
+30.0 +25.0 75 +43 +46 опасность
перегрева
1007.5 1005.6
06 20.08 Ю 5 12 км 10/4 600 м
[Sc Ac As Cs]
+31.6 +25.1 69 +46 +49 опасность
перегрева
1006.3 1004.4
09 20.08 Ю 5 12 км 10/6 600 м
[Sc Ac As Cs]
+31.0 +25.2 71 +45 +45 опасность
перегрева
1003.3 1001.5
12 20.08 Ю 2 9000 м дымка 10/6 600 м
[Sc Ac As Cs]
+27.5 +23.9 81 +38 +38 очень
душно
1005.5 1003.5 +32.3
15 20.08 штиль 0 8000 м дымка 10/4 600 м
[Sc Ac und Cs]
+27.0 +24.1 84 +37 +37 очень
душно
1007.0 1005.1
18 20.08 штиль 0 8000 м дымка 10/4 600 м
[Sc Ac und Cs]
+25.8 +24.3 91 +36 +36 очень
душно
1005.8 1003.9
21 20.08 штиль 0 8000 м дымка 10/4 600 м
[Sc Ac und Cs]
+25.5 +24.3 93 +35 +35 очень
душно
1005.3 1003.4
00 21.08 штиль 0 12 км 10/3 600 м
[Sc Ac und Cs]
+25.1 +23.5 91 +34 +34 очень
душно
1005.9 1004.0 +25.0
03 21.08 ЮВ 4 12 км 8/4 600 м
[Sc Ac und Cs]
+28.8 +23.6 74 +39 +44 очень
душно
1007.2 1005.3
06 21.08 Ю 2 13 км 8/6 600 м
[Sc Ac As Cs]
+32.7 +23.2 57 +43 +49 опасность
перегрева
1005.8 1003.9
09 21.08 ЮВ 5 10 км 9/8 600 м
[Sc Ac As Cs]
+32.0 +23.7 62 +43 +44 опасность
перегрева
1003.7 1001.8
12 21.08 штиль 0 7000 м дымка {дождь} 8/5 300 м
[Cb cap Ac und Cs]
+28.0 +25.9 88 +42 +42 опасность
перегрева
1005.4 1003.5 +34.3 3
15 21.08 штиль 0 7000 м дымка {дождь} 9/5 600 м
[Cb cap Ac As Cs]
+27.0 +25.6 92 +40 +40 очень
душно
1007.5 1005.6 0.8
18 21.08 ЮВ 2 7000 м дымка {дождь} 9/5 600 м
[Sc Ac As Cs]
+26.2 +24.5 90 +37 +37 очень
душно
1006.9 1005.0 3
21 21.08 ЮВ 2 7000 м дымка 10/5 600 м
[Sc Ac As Cs]
+25.5 +24.0 91 +35 +35 очень
душно
1006.4 1004.5
00 22.08 Ю 5 9000 м дымка 8/3 600 м
[Sc Ac und Cs]
+25.5 +24.0 91 +35 +35 очень
душно
1007.6 1005.7 +25.0
03 22.08 Ю 2 10 км 8/3 600 м
[Sc Ac und Cs]
+29.2 +23.9 73 +40 +47 очень
душно
1008.2 1006.3
06 22.08 Ю 7 10 км 9/6 600 м
[Sc Ac und Cs]
+32.0 +24.1 63 +44 +45 опасность
перегрева
1007.2 1005.3

 

Местоположение метеостанции Чайнат Агромет (Таиланд): широта 15.15 долгота 100.18 высота над уровнем моря 17 м.

В архиве по умолчанию представлена погода в Чайнат Агромете за последнюю неделю. Архивные данные за месяц целиком и за предыдущие месяцы, начиная с января 2011 года, Вы можете получить, выбрав интересующий диапазон дат из раскрывающегося списка и нажав кнопку "Ввод!".


*Определитесь, кто Вы:
робот инопланетянин человек

Внимание! Время в таблицах - всемирное. Для получения местного времени необходимо прибавить поправку, которая равна 7 ч.

Смотрите также архив погоды в соседних городах и на ближайших метеорологических станциях:

Погода в Утай Тани (Таиланд) (30 км)
Погода в Такфа Агромете (Таиланд) (41 км)
Погода в Лопбури (Таиланд) (60 км)
Погода в Накхон Саван (Таиланд) (72 км)
Погода в Лаем-Чабанге (Таиланд) (76 км)
Погода в Суфанбури (Таиланд) (76 км)
Погода в Аюттхая (Таиланд) (91 км)
Погода в У-Тхонг Агромете (Таиланд) (100 км)
Погода в Сарабури (Таиланд) (106 км)
Погода в Буа Чум (Таиланд) (108 км)

Пояснения к столбцам:

Ветер - указаны скорость ветра в м/с - средняя за 10 мин, порывы в срок и между сроками (в фигурных скобках) и направление, откуда дует ветер: С - северный, СВ - северо-восточный, В - восточный, ЮВ - юго-восточный, Ю - южный, ЮЗ - юго-западный, З - западный, СЗ - северо-западный.
Видимость - горизонтальная дальность видимости в метрах или километрах. При видимости от 1 до 10 км при отсутствии осадков обычно наблюдается дымка, при ухудшении видимости до 1 км и менее - туман. В сухую погоду видимость может ухудшаться дымом, пылью или мглою.
Явления - указаны атмосферные явления, наблюдавшиеся в срок или в последний час перед сроком; фигурными скобками обозначены явления, наблюдавшиеся между сроками (за 1-3 часа до срока); квадратными скобками обозначены град или гололедные отложения с указанием их диаметра в мм.
Облачность - указаны через наклонную черту общая и нижняя облачность в баллах и высота нижней границы облаков в метрах; квадратными скобками обозначены формы облаков: Ci - перистые, Cs - перисто-слоистые, Cc - перисто-кучевые, Ac - высококучевые, As - высокослоистые, Sc - слоисто-кучевые, Ns - слоисто-дождевые, Cu - кучевые, Cb - кучево-дождевые. Подробнее классификацию облаков см. в Атласе облаков (PDF).
T - Температура воздуха - температура, измеренная на высоте 2 м над землей.
Td - Температура точки росы - температура, при понижении до которой содержащийся в воздухе водяной пар достигнет насыщения.
f - Относительная влажность воздуха - влажноcть воздуха, измеренная на высоте 2 м над землей.
Te - Эффективная температура - температура, которую ощущает одетый по сезону человек в тени. Характеристика душности погоды. При расчете учитывается влияние влажности воздуха и скорости ветра на теплоощущения человека.
Tes - Эффективная температура на солнце - температура, которую ощущает человек, с поправкой на солнечный нагрев. Характеристика знойности погоды. Зависит от высоты солнца над горизонтом, облачности и скорости ветра. Ночью, в пасмурную погоду, а также при ветре 12 м/с и более поправка равна нулю.
P - Атмосферное давление - приведенное к уровню моря атмосферное давление.
Po - Атмосферное давление - измеренное на уровне метеостанции атмосферное давление.
Tmin - Минимальная температура - минимум температуры воздуха на высоте 2 м над землей.
Tmax - Максимальная температура - максимум температуры воздуха на высоте 2 м над землей.
R - Количество осадков - Количество выпавших осадков за период времени, мм. При наведении курсора мыши на число - период времени, за который выпало указанное количество осадков.
R24 - Количество осадков - Количество выпавших осадков за 24 часа, мм.
S - Снежный покров - Высота снежного покрова, см. При наведении курсора мыши на число - состояние снежного покрова и степень покрытия местности в баллах.